CW5917 Weather Reports


Display with metric or nautical units.
time (UTC)temp
F
wind
direction
speed
MPH
gust
MPH
rain 1hr
in
rain 24hr
in
rain mn
in
humidity
%
barometer
mb
20260505024046 60 295 9.0 20.0 0.00 0.00 0.00 33 1001.9
20260505023523 60 248 10.0 20.0 0.00 0.00 0.00 33 1001.7
20260505023045 60 314 10.0 18.0 0.00 0.00 0.00 33 1001.7
20260505022559 60 279 10.0 18.0 0.00 0.00 0.00 32 1001.5
20260505022137 60 295 10.0 21.0 0.00 0.00 0.00 32 1001.3
20260505021529 61 309 11.0 21.0 0.00 0.00 0.00 31 1001.2
20260505021023 61 313 12.0 23.0 0.00 0.00 0.00 32 1000.9
20260505020538 61 306 13.0 23.0 0.00 0.00 0.00 32 1000.5
20260505020024 61 306 8.0 18.0 0.00 0.00 0.00 33 1000.4
20260505015519 62 254 9.0 18.0 0.00 0.00 0.00 33 1000.4
20260505015045 62 298 7.0 22.0 0.00 0.00 0.00 32 1000.4
20260505014527 62 306 13.0 22.0 0.00 0.00 0.00 32 1000.3
20260505014035 62 325 15.0 22.0 0.00 0.00 0.00 32 1000.3
20260505013533 63 319 14.0 23.0 0.00 0.00 0.00 32 1000.2
20260505013028 63 311 15.0 23.0 0.00 0.00 0.00 33 1000.1
20260505012524 64 309 17.0 23.0 0.00 0.00 0.00 33 999.9
20260505012031 64 302 12.0 25.0 0.00 0.00 0.00 33 1000.0
20260505011531 64 301 17.0 27.0 0.00 0.00 0.00 33 1000.0
20260505011025 65 296 20.0 27.0 0.00 0.00 0.00 32 1000.0
20260505010522 65 331 16.0 26.0 0.00 0.00 0.00 33 999.8
20260505010035 66 300 15.0 23.0 0.00 0.00 0.00 34 999.9
20260505005548 66 290 12.0 21.0 0.00 0.00 0.00 33 999.5
20260505005021 67 281 14.0 21.0 0.00 0.00 0.00 32 999.3
20260505004033 67 301 17.0 28.0 0.00 0.00 0.00 32 999.0
20260505003536 68 304 15.0 25.0 0.00 0.00 0.00 32 998.7
20260505003032 69 300 19.0 25.0 0.00 0.00 0.00 31 998.5
20260505002526 69 276 13.0 27.0 0.00 0.00 0.00 32 998.2
20260505002021 70 288 18.0 27.0 0.00 0.00 0.00 31 998.2
20260505001521 70 302 15.0 23.0 0.00 0.00 0.00 31 998.1
20260505001034 71 290 14.0 20.0 0.00 0.00 0.00 31 998.1
20260505000523 71 290 12.0 23.0 0.00 0.00 0.00 31 998.1
20260505000034 72 299 17.0 24.0 0.00 0.00 0.00 30 998.0
20260504235542 72 307 16.0 24.0 0.00 0.00 0.00 30 997.9
20260504235022 73 300 14.0 23.0 0.00 0.00 0.00 31 998.0
20260504234522 73 297 12.0 22.0 0.00 0.00 0.00 32 997.9
20260504234035 74 287 11.0 26.0 0.00 0.00 0.00 33 997.8
20260504233547 74 300 17.0 26.0 0.00 0.00 0.00 33 997.6
20260504233021 75 326 18.0 26.0 0.00 0.00 0.00 32 997.6
20260504232536 76 321 17.0 26.0 0.00 0.00 0.00 33 997.5
20260504232020 76 303 14.0 21.0 0.00 0.00 0.00 33 997.3
20260504231539 76 252 13.0 24.0 0.00 0.00 0.00 33 997.3
20260504231050 77 247 14.0 24.0 0.00 0.00 0.00 33 997.2
20260504230521 77 297 15.0 24.0 0.00 0.00 0.00 33 997.1
20260504230026 77 287 17.0 31.0 0.00 0.00 0.00 33 997.2
20260504225523 78 273 18.0 31.0 0.00 0.00 0.00 33 997.2
20260504225055 78 271 14.0 24.0 0.00 0.00 0.00 34 997.1
20260504224534 78 296 15.0 24.0 0.00 0.00 0.00 33 996.9
20260504224038 79 220 17.0 24.0 0.00 0.00 0.00 31 997.0
20260504223532 79 271 15.0 24.0 0.00 0.00 0.00 30 997.0
20260504223021 79 269 12.0 27.0 0.00 0.00 0.00 30 997.0
20260504222524 79 299 11.0 27.0 0.00 0.00 0.00 31 997.0
20260504222037 79 270 10.0 20.0 0.00 0.00 0.00 32 996.9
20260504221524 78 248 13.0 24.0 0.00 0.00 0.00 32 996.8
20260504221021 78 254 15.0 22.0 0.00 0.00 0.00 32 996.9
20260504220557 78 299 14.0 20.0 0.00 0.00 0.00 32 996.9
20260504220036 77 249 9.0 24.0 0.00 0.00 0.00 32 997.0
20260504215522 77 331 16.0 26.0 0.00 0.00 0.00 31 997.0
20260504215033 77 234 13.0 24.0 0.00 0.00 0.00 32 997.0
20260504214534 77 244 12.0 23.0 0.00 0.00 0.00 31 997.0
20260504214050 77 292 14.0 23.0 0.00 0.00 0.00 30 997.0
20260504213544 77 244 15.0 25.0 0.00 0.00 0.00 31 997.0
20260504213024 78 246 13.0 21.0 0.00 0.00 0.00 31 997.0
20260504212533 78 235 13.0 24.0 0.00 0.00 0.00 30 997.1
20260504212038 79 242 14.0 30.0 0.00 0.00 0.00 30 997.0
20260504211519 80 219 17.0 23.0 0.00 0.00 0.00 29 997.0
20260504211033 80 219 15.0 23.0 0.00 0.00 0.00 30 997.1
20260504210530 79 238 19.0 28.0 0.00 0.00 0.00 31 997.0
20260504210024 79 207 14.0 28.0 0.00 0.00 0.00 30 997.2
20260504205534 79 236 18.0 28.0 0.00 0.00 0.00 30 997.2
20260504205059 79 286 13.0 28.0 0.00 0.00 0.00 30 997.3
20260504204540 79 238 18.0 28.0 0.00 0.00 0.00 30 997.3
20260504204034 79 228 16.0 24.0 0.00 0.00 0.00 31 997.4
20260504203534 79 245 14.0 26.0 0.00 0.00 0.00 33 997.4
20260504203038 79 226 16.0 26.0 0.00 0.00 0.00 32 997.4
20260504202532 78 241 15.0 25.0 0.00 0.00 0.00 33 997.4
20260504202026 78 241 13.0 21.0 0.00 0.00 0.00 33 997.6
20260504201545 78 263 13.0 23.0 0.00 0.00 0.00 33 997.6
20260504201035 79 250 14.0 28.0 0.00 0.00 0.00 32 997.7
20260504200558 79 241 18.0 28.0 0.00 0.00 0.00 32 997.8
20260504200023 80 240 20.0 29.0 0.00 0.00 0.00 30 997.7
20260504195533 80 229 17.0 29.0 0.00 0.00 0.00 30 997.8
20260504195027 80 246 14.0 29.0 0.00 0.00 0.00 31 997.7
20260504194535 80 240 17.0 30.0 0.00 0.00 0.00 31 997.8
20260504193555 80 236 14.0 27.0 0.00 0.00 0.00 32 998.0
20260504193033 80 230 16.0 27.0 0.00 0.00 0.00 31 997.9
20260504192528 80 221 16.0 28.0 0.00 0.00 0.00 31 998.0
20260504192041 80 242 20.0 29.0 0.00 0.00 0.00 30 997.9
20260504191536 80 234 19.0 29.0 0.00 0.00 0.00 32 998.1
20260504191100 79 246 16.0 26.0 0.00 0.00 0.00 31 998.1
20260504190525 79 228 19.0 26.0 0.00 0.00 0.00 32 998.2
20260504190020 79 271 14.0 24.0 0.00 0.00 0.00 32 998.3
20260504185522 79 237 15.0 24.0 0.00 0.00 0.00 31 998.3
20260504185033 78 300 15.0 29.0 0.00 0.00 0.00 32 998.3
20260504184532 78 221 21.0 32.0 0.00 0.00 0.00 31 998.4
20260504184028 79 228 18.0 32.0 0.00 0.00 0.00 30 998.5
20260504183521 78 255 12.0 26.0 0.00 0.00 0.00 32 998.4
20260504183027 78 223 15.0 28.0 0.00 0.00 0.00 31 998.3
20260504182543 78 222 18.0 28.0 0.00 0.00 0.00 31 998.4
20260504182039 78 200 20.0 31.0 0.00 0.00 0.00 29 998.4
20260504181538 78 301 15.0 25.0 0.00 0.00 0.00 32 998.4
20260504181022 77 242 14.0 27.0 0.00 0.00 0.00 33 998.4
20260504180536 75 193 15.0 27.0 0.00 0.00 0.00 35 998.5
20260504180025 75 223 16.0 31.0 0.00 0.00 0.00 33 998.4
20260504175525 76 246 18.0 31.0 0.00 0.00 0.00 32 998.4
20260504175020 77 214 21.0 31.0 0.00 0.00 0.00 30 998.5
20260504174530 78 230 20.0 30.0 0.00 0.00 0.00 30 998.4
20260504174039 77 226 19.0 28.0 0.00 0.00 0.00 30 998.4
20260504173554 77 192 17.0 28.0 0.00 0.00 0.00 31 998.6
20260504173028 77 219 20.0 28.0 0.00 0.00 0.00 29 998.4
20260504172522 77 242 15.0 24.0 0.00 0.00 0.00 31 998.5
20260504172022 77 226 16.0 27.0 0.00 0.00 0.00 30 998.5
20260504171545 76 227 22.0 27.0 0.00 0.00 0.00 30 998.4
20260504171036 77 221 21.0 29.0 0.00 0.00 0.00 30 998.6
20260504170548 77 227 18.0 30.0 0.00 0.00 0.00 33 998.6
20260504151022 71 215 17.0 22.0 0.00 0.00 0.00 34 1000.3
20260504150518 70 216 13.0 25.0 0.00 0.00 0.00 36 1000.5
20260504141036 66 234 12.0 17.0 0.00 0.01 0.00 41 1001.2
20260504140518 65 219 12.0 16.0 0.00 0.01 0.00 42 1001.3
20260504130541 56 236 8.0 14.0 0.00 0.02 0.00 57 1001.9
20260504110526 49 223 4.0 8.0 0.00 0.02 0.00 62 1002.1
20260504100519 51 227 5.0 7.0 0.00 0.02 0.00 59 1002.4
20260504081553 51 209 6.0 7.0 0.00 0.02 0.00 61 1003.4
20260504081027 51 218 5.0 7.0 0.00 0.02 0.00 61 1003.5
20260504080518 51 221 6.0 7.0 0.00 0.02 0.00 61 1003.5
20260504045529 55 227 4.0 6.0 0.00 0.02 0.02 55 1005.3
20260504045043 55 227 3.0 5.0 0.00 0.02 0.02 55 1005.3
20260504044021 56 227 3.0 4.0 0.00 0.02 0.02 54 1005.4
20260504043519 56 227 3.0 4.0 0.00 0.02 0.02 53 1005.4
20260504043032 56 227 3.0 4.0 0.00 0.02 0.02 53 1005.5
20260504042525 56 227 3.0 5.0 0.00 0.02 0.02 53 1005.3
20260504042035 57 227 4.0 5.0 0.00 0.02 0.02 52 1005.3
20260504041520 57 227 3.0 4.0 0.00 0.02 0.02 52 1005.3
20260504041051 58 252 3.0 3.0 0.00 0.02 0.02 51 1005.4
20260504040520 58 252 1.0 2.0 0.00 0.02 0.02 49 1005.4
20260504040030 58 252 1.0 2.0 0.00 0.02 0.02 49 1005.4
20260504035541 59 252 1.0 3.0 0.00 0.02 0.02 49 1005.4
20260504035020 59 252 2.0 3.0 0.00 0.02 0.02 49 1005.4
20260504034520 59 242 2.0 4.0 0.00 0.02 0.02 49 1005.3
20260504034031 60 242 2.0 4.0 0.00 0.02 0.02 50 1005.5
20260504033540 60 225 3.0 6.0 0.00 0.02 0.02 50 1005.5
20260504033035 60 225 3.0 6.0 0.00 0.02 0.02 49 1005.5
20260504032536 60 254 3.0 6.0 0.00 0.02 0.02 47 1005.5
20260504032018 60 262 3.0 6.0 0.00 0.02 0.02 47 1005.4
20260504031545 60 277 2.0 5.0 0.00 0.02 0.02 47 1005.5
20260504031052 60 268 3.0 5.0 0.00 0.02 0.02 47 1005.5
20260504030519 61 281 3.0 7.0 0.00 0.02 0.02 47 1005.5
20260504030020 61 291 4.0 7.0 0.00 0.02 0.02 47 1005.3
20260504025557 61 262 4.0 6.0 0.00 0.02 0.02 48 1005.3
20260504025026 61 256 3.0 6.0 0.00 0.02 0.02 48 1005.3
20260504024525 61 252 3.0 7.0 0.00 0.02 0.02 48 1005.3